Regional Weather Roundup
Issued by NWS Sterling, VA

Home | Current Version | Previous Version | Text Only | Print | Product List | Glossary On
Versions: 1 2 3 4 5 6 7 8 9 10 11 12 13 14 15 16 17 18 19 20 21 22 23 24 25 26 27 28 29 30 31 32 33 34 35 36 37 38 39 40 41 42 43 44 45 46 47 48 49 50
547
ASUS41 KLWX 170011
RWRLWX

REGIONAL WEATHER ROUNDUP
NATIONAL WEATHER SERVICE BALTIMORE MD/WASHINGTON DC
800 PM EDT WED AUG 16 2017

Note: "FAIR" indicates few or no clouds below 12,000 feet
with no significant weather and/or obstructions to visibility.
 TC=TEMPERATURE CELSIUS

 * =Non NWS site. Station does not report precipitation (e.g. rain,
    snow, etc.), thunder, or fog.

DCZ001-MDZ009-015-VAZ040>042-051-053>054-170100-
WASHINGTON METRO

CITY           SKY/WX    TMP DP  RH WIND       PRES   REMARKS
WASHINGTON NAT MOCLDY    86  69  56 NE6       29.98R HX  90
DULLES         MOCLDY    77  73  87 SW5       29.99S
ANDREWS AFB    PTCLDY    81  68  65 E3        29.98R
FT BELVOIR     MOCLDY    79  73  80 CALM      29.98R
QUANTICO       MOCLDY    82  77  84 CALM      29.98S HX  90
COLLEGE PARK*  MOCLDY    78  69  72 CALM      29.98R
LEESBURG*      CLOUDY    81  73  78 CALM      30.01R
MANASSAS*      MOCLDY    83  70  64 NE8       30.00R
GAITHERSBURG*  CLEAR     78  67  68 CALM      30.02R

$$

MDZ006>007-011-014-170100-
BALTIMORE METRO

CITY           SKY/WX    TMP DP  RH WIND       PRES   REMARKS
BWI AIRPORT    PTCLDY    80  72  76 SE3       29.98R
MD SCIENCE CTR   N/A     84  71  65 MISG      29.98R
MARTIN STATE   PTCLDY    81  77  89 CALM      29.99F
ANNAPOLIS      CLEAR     83  73  72 CALM      29.99R
FORT MEADE*    CLEAR     77  72  83 SE3       30.01R

$$

MDZ012-015-019>023-170100-
MARYLAND EASTERN SHORE

CITY           SKY/WX    TMP DP  RH WIND       PRES   REMARKS
OCEAN CITY     CLOUDY    78  72  81 S5        30.01R
SALISBURY      MOCLDY    78  73  84 NE3       29.99R
BAY BRIDGE AP* PTCLDY    81  73  78 NE5       29.99R
CAMBRIDGE*     CLEAR     79  75  89 CALM      29.98S
EASTON*        LGT RAIN  77  73  88 SE7       30.04R

$$

MDZ017>025-170100-
SOUTHERN MARYLAND

CITY           SKY/WX    TMP DP  RH WIND       PRES   REMARKS
PATUXENT RIVER PTCLDY    80  76  87 S5        29.98R
ST INIGOES     CLEAR     79  75  87 SE6       29.98R
LEONARDTOWN*   PTCLDY    77  73  88 CALM      30.00S

$$

MDZ003>005-170100-
NORTH CENTRAL MARYLAND

CITY           SKY/WX    TMP DP  RH WIND       PRES   REMARKS
FREDERICK*     PTCLDY    82  66  57 CALM      30.02R
HAGERSTOWN APT CLEAR     83  63  50 NE5       30.01R
WESTMINSTER*   CLEAR     82  66  57 CALM      30.02R

$$

MDZ501>502-170100-
WESTERN MARYLAND

CITY           SKY/WX    TMP DP  RH WIND       PRES   REMARKS
OAKLAND*       PTCLDY    70  61  73 CALM      30.12R
CUMBERLAND*    PTCLDY    82  63  51 NW3       30.05S

$$

VAZ025>031-170100-
SHENANDOAH VALLEY

CITY           SKY/WX    TMP DP  RH WIND       PRES   REMARKS
WINCHESTER*    MOCLDY    77  68  73 CALM      30.02R
FRONT ROYAL*   PTCLDY    79  73  83 CALM      30.00R
LURAY*         CLOUDY    81  70  69 CALM      30.01S
NEW MARKET*    CLOUDY    74  72  93 CALM      30.00R
STAUNTON*      CLEAR     78  70  74 CALM      30.05R
WAYNESBORO*    CLEAR     80  70  72 SE3       30.05R

$$

WVZ021-048>050-054>055-170100-
EASTERN WEST VIRGINIA PANHANDLE

CITY           SKY/WX    TMP DP  RH WIND       PRES   REMARKS
MARTINSBURG    CLEAR     79  72  78 CALM      30.00R
PETERSBURG*    CLEAR     82  71  70 NW3       30.03R

$$

VAZ036>039-050-170100-
CENTRAL FOOTHILLS

CITY           SKY/WX    TMP DP  RH WIND       PRES   REMARKS
CHARLOTTESVILL PTCLDY    84  71  65 E5        30.00R
CULPEPER*      CLOUDY    79  74  86 CALM      30.00R
ORANGE*        CLOUDY    79  70  73 CALM      30.00R
GORDONSVILLE*  CLEAR     80  75  85 CALM      30.00R
WARRENTON*     NOT AVBL

$$

VAZ055>057-170100-
NORTH AND CENTRAL PIEDMONT

CITY           SKY/WX    TMP DP  RH WIND       PRES   REMARKS
FREDERICKSBRG* CLEAR     78  75  88 CALM      29.98R
STAFFORD*      PTCLDY    76  76 100 CALM      30.02S

$$

NCZ024-NYZ072-PAZ021-071-VAZ022-071-170100-
OTHER REGIONAL OBSERVATIONS

CITY           SKY/WX    TMP DP  RH WIND       PRES   REMARKS
NEW YORK CITY  CLEAR     81  60  48 CALM      30.00R
PHILADELPHIA   PTCLDY    84  61  45 NW8       29.98R
PITTSBURGH     PTCLDY    81  60  48 NE6       30.04R
ROANOKE        PTCLDY    85  67  54 S8        30.05R
RICHMOND       MOCLDY    82  72  71 SE5       29.99R
RALEIGH        PTCLDY    85  72  65 E6        30.01R HX  91

$$

ANZ530>537-170100-
MARINE OBSERVATIONS

STATION/POSITION TIME  TEMP    WIND        PRES
                       AIR SEA DIR/SP/G
                 (UTC) (F)     (DEG/KT/KT) (MB)
THOMAS PT LIGHT  2300   83 80   70/  3/  4   N/A
BALT KEY BRIDGE  2342   81     120/  3/  4 1015.2R
COVE POINT       2342   81     190/  8/ 10 1015.9R
LEWISETTA        2342   82 83  160/  4/  4 1015.2S
SOLOMONS ISLAND  2342   82 81  150/  6/  6   N/A
PINEY POINT      2348          180/  9/ 10   N/A

$$





USA.gov is the U.S. government's official web portal to all federal, state and local government web resources and services.